• In Romania
  • List of Countries
  • For 7 days
  • Water Temperature
  • Satellite Maps
  • Weather Map
  • Weather Widgets
  • user-avatar
    Login

    Hourly Weather Kalgoorlie

    Today, 17 August, Friday

    Time Temperature Precipitation Wind Pressure Humidity
    00:00 +11°C° 0 mm 4 mps 731 mmHg 68%
    01:00 +10°C° 0 mm 4 mps 731 mmHg 71%
    02:00 +10°C° 0 mm 4 mps 731 mmHg 76%
    03:00 +10°C° 0 mm 4 mps 731 mmHg 79%
    04:00 +8°C° 0 mm 4 mps 731 mmHg 82%
    05:00 +8°C° 0 mm 4 mps 731 mmHg 86%
    06:00 +9°C° 0 mm 5 mps 731 mmHg 83%
    07:00 +9°C° 0 mm 5 mps 732 mmHg 81%
    08:00 +10°C° 0 mm 6 mps 732 mmHg 77%
    09:00 +13°C° 0 mm 6 mps 732 mmHg 70%
    10:00 +14°C° 0 mm 5 mps 732 mmHg 63%
    11:00 +15°C° 0 mm 5 mps 732 mmHg 56%
    12:00 +16°C° 0 mm 5 mps 732 mmHg 53%
    13:00 +16°C° 0 mm 5 mps 732 mmHg 50%
    14:00 +17°C° 0 mm 5 mps 732 mmHg 47%
    15:00 +16°C° 0 mm 5 mps 732 mmHg 46%
    16:00 +16°C° 0 mm 5 mps 733 mmHg 45%
    17:00 +15°C° 0 mm 5 mps 733 mmHg 44%
    18:00 +14°C° 0 mm 4 mps 733 mmHg 47%
    19:00 +13°C° 0 mm 4 mps 734 mmHg 50%
    20:00 +12°C° 0 mm 4 mps 735 mmHg 53%
    21:00 +11°C° 0 mm 4 mps 735 mmHg 55%
    22:00 +10°C° 0 mm 4 mps 735 mmHg 58%
    23:00 +9°C° 0 mm 5 mps 736 mmHg 60%

    Tomorrow, 18 August, Saturday

    Time Temperature Precipitation Wind Pressure Humidity
    00:00 +8°C° 0 mm 5 mps 736 mmHg 62%
    01:00 +7°C° 0 mm 5 mps 736 mmHg 64%
    02:00 +7°C° 0 mm 5 mps 736 mmHg 66%
    03:00 +6°C° 0 mm 4 mps 736 mmHg 67%
    04:00 +6°C° 0 mm 4 mps 736 mmHg 69%
    05:00 +5°C° 0 mm 4 mps 737 mmHg 70%
    06:00 +6°C° 0 mm 4 mps 737 mmHg 67%
    07:00 +6°C° 0 mm 5 mps 737 mmHg 64%
    08:00 +7°C° 0 mm 5 mps 738 mmHg 61%
    09:00 +9°C° 0 mm 5 mps 738 mmHg 55%
    10:00 +10°C° 0 mm 5 mps 738 mmHg 48%
    11:00 +13°C° 0 mm 5 mps 738 mmHg 42%
    12:00 +14°C° 0 mm 5 mps 737 mmHg 39%
    13:00 +15°C° 0 mm 4 mps 737 mmHg 36%
    14:00 +17°C° 0 mm 4 mps 736 mmHg 32%
    15:00 +17°C° 0 mm 3 mps 736 mmHg 32%
    16:00 +17°C° 0 mm 3 mps 736 mmHg 31%
    17:00 +16°C° 0 mm 3 mps 736 mmHg 31%
    18:00 +14°C° 0 mm 3 mps 737 mmHg 33%
    19:00 +13°C° 0 mm 4 mps 737 mmHg 35%
    20:00 +12°C° 0 mm 4 mps 737 mmHg 37%
    21:00 +12°C° 0 mm 4 mps 738 mmHg 38%
    22:00 +11°C° 0 mm 4 mps 738 mmHg 39%
    23:00 +10°C° 0 mm 5 mps 738 mmHg 40%

    Day after tomorrow, 19 August, Sunday

    Time Temperature Precipitation Wind Pressure Humidity
    00:00 +9°C° 0 mm 5 mps 738 mmHg 41%
    01:00 +9°C° 0 mm 5 mps 738 mmHg 43%
    02:00 +8°C° 0 mm 5 mps 737 mmHg 45%
    03:00 +8°C° 0 mm 5 mps 737 mmHg 46%
    04:00 +8°C° 0 mm 5 mps 737 mmHg 48%
    05:00 +7°C° 0 mm 5 mps 736 mmHg 50%
    06:00 +8°C° 0 mm 6 mps 737 mmHg 48%
    07:00 +9°C° 0 mm 6 mps 737 mmHg 47%
    08:00 +10°C° 0 mm 7 mps 737 mmHg 45%
    09:00 +12°C° 0 mm 7 mps 737 mmHg 40%
    10:00 +15°C° 0 mm 7 mps 736 mmHg 35%
    11:00 +17°C° 0 mm 7 mps 736 mmHg 30%
    12:00 +20°C° 0 mm 7 mps 735 mmHg 29%
    13:00 +21°C° 0 mm 7 mps 734 mmHg 27%
    14:00 +22°C° 0 mm 7 mps 733 mmHg 26%
    15:00 +22°C° 0 mm 6 mps 733 mmHg 27%
    16:00 +22°C° 0 mm 6 mps 733 mmHg 28%
    17:00 +21°C° 0 mm 5 mps 732 mmHg 29%
    18:00 +20°C° 0 mm 5 mps 732 mmHg 30%
    19:00 +19°C° 0 mm 5 mps 732 mmHg 32%
    20:00 +17°C° 0 mm 5 mps 732 mmHg 33%
    21:00 +17°C° 0 mm 6 mps 732 mmHg 32%
    22:00 +17°C° 0 mm 7 mps 731 mmHg 30%
    23:00 +17°C° 0 mm 8 mps 731 mmHg 29%

    20 August, Monday

    Time Temperature Precipitation Wind Pressure Humidity
    00:00 +17°C° 0 mm 7 mps 730 mmHg 30%
    01:00 +17°C° 0 mm 7 mps 730 mmHg 31%
    02:00 +17°C° 0 mm 6 mps 729 mmHg 31%
    03:00 +16°C° 0 mm 5 mps 729 mmHg 40%
    04:00 +15°C° 0 mm 5 mps 729 mmHg 49%
    05:00 +15°C° 0 mm 5 mps 729 mmHg 57%
    06:00 +14°C° 0 mm 5 mps 729 mmHg 61%
    07:00 +14°C° 0 mm 6 mps 730 mmHg 64%
    08:00 +12°C° 0 mm 7 mps 730 mmHg 67%
    09:00 +13°C° 0 mm 8 mps 730 mmHg 59%
    10:00 +15°C° 0 mm 8 mps 730 mmHg 50%
    11:00 +15°C° 0 mm 8 mps 730 mmHg 41%
    12:00 +16°C° 0 mm 9 mps 730 mmHg 37%
    13:00 +16°C° 0 mm 9 mps 729 mmHg 33%
    14:00 +16°C° 0 mm 10 mps 729 mmHg 30%
    15:00 +14°C° 0 mm 10 mps 729 mmHg 38%
    16:00 +13°C° 0 mm 10 mps 729 mmHg 46%
    17:00 +13°C° 0 mm 10 mps 729 mmHg 54%
    18:00 +12°C° 0 mm 10 mps 729 mmHg 57%
    19:00 +12°C° 0 mm 10 mps 729 mmHg 60%
    20:00 +12°C° 0 mm 10 mps 730 mmHg 63%
    21:00 +11°C° 0 mm 9 mps 730 mmHg 67%
    22:00 +10°C° 0 mm 9 mps 730 mmHg 71%
    23:00 +10°C° 0 mm 8 mps 730 mmHg 75%

    21 August, Tuesday

    Time Temperature Precipitation Wind Pressure Humidity
    00:00 +10°C° 0 mm 8 mps 729 mmHg 76%
    01:00 +9°C° 0 mm 7 mps 729 mmHg 78%
    02:00 +9°C° 0 mm 6 mps 729 mmHg 80%
    03:00 +9°C° 0 mm 6 mps 729 mmHg 81%
    04:00 +9°C° 0 mm 5 mps 729 mmHg 83%
    05:00 +8°C° 0 mm 5 mps 729 mmHg 85%
    06:00 +9°C° 0 mm 6 mps 729 mmHg 84%
    07:00 +10°C° 0 mm 6 mps 730 mmHg 82%
    08:00 +10°C° 0 mm 7 mps 730 mmHg 81%
    09:00 +11°C° 0.1 mm 7 mps 730 mmHg 78%
    10:00 +12°C° 0.1 mm 7 mps 730 mmHg 75%
    11:00 +12°C° 0.1 mm 7 mps 730 mmHg 72%
    12:00 +14°C° 0.1 mm 7 mps 729 mmHg 69%
    13:00 +14°C° 0.1 mm 7 mps 729 mmHg 65%
    14:00 +15°C° 0.1 mm 7 mps 729 mmHg 62%
    15:00 +14°C° 0.1 mm 7 mps 729 mmHg 64%
    16:00 +14°C° 0.1 mm 7 mps 730 mmHg 66%
    17:00 +12°C° 0.1 mm 7 mps 730 mmHg 68%
    18:00 +12°C° 0.1 mm 7 mps 731 mmHg 71%
    19:00 +11°C° 0.1 mm 6 mps 731 mmHg 75%
    20:00 +11°C° 0.1 mm 6 mps 732 mmHg 79%
    21:00 +10°C° 0.1 mm 6 mps 732 mmHg 80%
    22:00 +10°C° 0.1 mm 6 mps 732 mmHg 81%
    23:00 +10°C° 0.1 mm 5 mps 732 mmHg 82%

    22 August, Wednesday

    Time Temperature Precipitation Wind Pressure Humidity
    00:00 +9°C° 0.1 mm 5 mps 732 mmHg 83%
    01:00 +9°C° 0.1 mm 5 mps 732 mmHg 84%
    02:00 +8°C° 0.1 mm 5 mps 732 mmHg 85%
    03:00 +8°C° 0 mm 5 mps 732 mmHg 84%
    04:00 +7°C° 0 mm 5 mps 732 mmHg 82%
    05:00 +7°C° 0 mm 5 mps 733 mmHg 80%
    06:00 +7°C° 0 mm 5 mps 733 mmHg 77%
    07:00 +7°C° 0 mm 6 mps 734 mmHg 74%
    08:00 +7°C° 0 mm 6 mps 734 mmHg 71%
    09:00 +8°C° 0 mm 6 mps 734 mmHg 67%
    10:00 +10°C° 0 mm 6 mps 734 mmHg 63%
    11:00 +11°C° 0 mm 7 mps 734 mmHg 60%
    12:00 +11°C° 0 mm 7 mps 734 mmHg 55%
    13:00 +12°C° 0 mm 7 mps 733 mmHg 51%
    14:00 +14°C° 0 mm 7 mps 733 mmHg 47%
    15:00 +14°C° 0 mm 7 mps 733 mmHg 47%
    16:00 +14°C° 0 mm 7 mps 734 mmHg 47%
    17:00 +14°C° 0 mm 6 mps 734 mmHg 48%
    18:00 +11°C° 0 mm 7 mps 735 mmHg 54%
    19:00 +10°C° 0 mm 7 mps 736 mmHg 59%
    20:00 +9°C° 0 mm 7 mps 736 mmHg 65%
    21:00 +9°C° 0 mm 6 mps 737 mmHg 69%
    22:00 +8°C° 0 mm 6 mps 737 mmHg 73%
    23:00 +7°C° 0 mm 6 mps 737 mmHg 77%
    Show more